Regional Weather Roundup
Issued by NWS

Home | Current Version | Previous Version | Graphics & Text | Print | Product List | Glossary On
Versions: 1 2 3 4 5 6 7 8 9 10 11 12 13 14 15 16 17 18 19 20 21 22 23 24 25 26 27 28 29 30 31 32 33 34 35 36 37 38 39 40 41 42 43 44 45 46 47 48 49 50
545
ASUS43 KIND 012009
RWRIN

WEATHER ROUNDUP FOR INDIANA
NATIONAL WEATHER SERVICE INDIANAPOLIS IN
300 PM EST WED MAR 01 2017

NOTE: "FAIR" INDICATES FEW OR NO CLOUDS BELOW 12,000 FEET WITH NO
SIGNIFICANT WEATHER AND/OR OBSTRUCTIONS TO VISIBILITY.

* - STATION DOES NOT REPORT WEATHER SUCH AS PRECIPITATION OR FOG.

+ - STATION NOT QUALITY CONTROLLED BY THE NATIONAL WEATHER SERVICE.
    USE DATA WITH CAUTION...ESPECIALLY DEWPOINT AND RELATIVE
    HUMIDITY OBSERVATIONS.

INZ001>003-010>013-019-020-012100-
NORTHWEST INDIANA

CITY           SKY/WX    TMP DP  RH WIND       PRES   REMARKS
GARY /AIRPORT/ LGT RAIN  41  37  87 W17G32    29.65R
KNOX *+        CLOUDY    39  27  60 W26G35    29.63R
LA PORTE +     CLOUDY    40  37  88 W9G16     29.62R
MICHIGAN CITY+ DRIZZLE   37  37 100 W8        29.62R
MONTICELLO +   CLOUDY    40  36  84 W26G40    29.69R
RENSSELAER +     N/A     39  37  93 W29G39    29.69R
VALPARAISO     CLOUDY    41  37  86 W24G37    29.64R

$$

LMZ046-743>745-012100-
SOUTHERN LAKE MICHIGAN

STATION/POSITION TIME  TEMP    WIND        PRES    WAVE
                       AIR SEA DIR/SP/G            HT
                 (UTC) (F)     (DEG/KT/KT) (MB)    (FT)
BURNS HARBOR     1940   40     280/ 18/ 22 1003.4R
MICHIGAN CITY    1940   37     250/ 10/ 12   N/A

$$

INZ004-005-014>016-021>024-012100-
NORTH CENTRAL INDIANA

CITY           SKY/WX    TMP DP  RH WIND       PRES   REMARKS
ELKHART        LGT RAIN  37  36  93 W9G17     29.58R
GOSHEN         CLOUDY    39  35  86 W23G31    29.58R
LOGANSPORT +   CLOUDY    41  36  81 W32G43    29.69R
PERU/GRISSOM   CLOUDY    42  40  93 W30G45    29.65R
ROCHESTER +    CLOUDY    45  39  81 W20G29    29.63R
SOUTH BEND     LGT RAIN  37  35  92 W14       29.60R
WARSAW +       DRIZZLE   43  37  81 W23G30    29.59R

$$

INZ006>009-017-018-025>027-012100-
NORTHEAST INDIANA

CITY           SKY/WX    TMP DP  RH WIND       PRES   REMARKS
ANGOLA *+      CLOUDY    39  37  93 W22G37    29.53R
AUBURN +       CLOUDY    43  37  81 W22G31    29.57R
FORT WAYNE     DRIZZLE   45  40  82 W25G35    29.58R
HUNTINGTON +   CLOUDY    43  40  91 W18G41    29.61R
KENDALLVILLE + CLOUDY    39  38  93 W23G41    29.46R

$$

INZ028-029-035-036-043>045-051>053-012100-
WEST CENTRAL INDIANA

CITY           SKY/WX    TMP DP  RH WIND       PRES   REMARKS
GREENCASTLE +  CLOUDY    43  36  75 W14G33    29.77R
LAFAYETTE      CLOUDY    43  36  76 W29G41    29.71R
TERRE HAUTE    LGT RAIN  45  34  65 W16G38    29.82R

$$

INZ030>032-037>040-046>048-054>057-064-065-012100-
CENTRAL INDIANA

CITY           SKY/WX    TMP DP  RH WIND       PRES   REMARKS
ANDERSON       CLOUDY    45  39  81 W17G40    29.68R
CP ATTERBURY + CLOUDY    46  39  76 W21G32    29.75R
COLUMBUS       CLOUDY    46  45  93 W18G36    29.75R
FRANKFORT +    CLOUDY    45  39  81 W33G40    29.73R
GREENWOOD *+   CLOUDY    46  40  81 W15G31    29.75R
INDIANAPOLIS   CLOUDY    45  38  76 W23G39    29.74R
-EAGLE CREEK   CLOUDY    45  37  73 W21G33    29.72R
KOKOMO +       CLOUDY    42  38  85 W33G41    29.67R
MARION +       CLOUDY    43  39  85 W33G40    29.66R
MT COMFORT *+  CLOUDY    45  39  81 W25       29.71R
SHELBYVILLE    CLOUDY    47  39  74 W22G36    29.72R
ZIONSVILLE +   CLOUDY    43  37  78 W31       29.72R

$$

INZ033-034-041-042-049-050-058-059-012100-
EAST CENTRAL INDIANA

CITY           SKY/WX    TMP DP  RH WIND       PRES   REMARKS
MUNCIE         CLOUDY    46  40  79 W25G37    29.65R

$$

INZ060-061-067>069-081>083-085>088-012100-
SOUTHWEST INDIANA

CITY           SKY/WX    TMP DP  RH WIND       PRES   REMARKS
EVANSVILLE     CLOUDY    52  41  66 W20G36    29.86R
HUNTINGBURG *+ CLOUDY    48  43  81 W22       29.85R
WASHINGTON +   CLOUDY    47  38  71 MISG      29.84R

$$

INZ062-063-066-070>080-084-089>092-012100-
SOUTH CENTRAL AND SOUTHEAST INDIANA

CITY           SKY/WX    TMP DP  RH WIND       PRES   REMARKS
BEDFORD +      CLOUDY    48  39  71 W15G24    29.79R
BLOOMINGTON    CLOUDY    47  38  71 W21G33    29.78R
NORTH VERNON + CLOUDY    54  45  71 W24       29.73R

$$





USA.gov is the U.S. government's official web portal to all federal, state and local government web resources and services.